Temp
16 17 17 17 17 17 18 18 18 18 19 19 20 21 21 22 22 23 23 24 24 25 24 24 24 25 26 28 28 28 25 25 27 24 28 29 28 28 28 28 27 26 26 25 22
16 17 17 17 17 18 18 18 18 19 19 19 20 21 21 22 22 22 24 24 24 25 24 25 27 27 28 29 29 29 28 29 30 30 30 29 29 29 28 28 27 26 25 24 22
16 17 17 17 17 18 18 18 18 19 19 19 20 20 21 22 22 26 25 25 25 25 25 26 27 28 29 30 30 30 29 29 30 28 28 29 29 28 29 24 28 27 25 23 23
16 17 17 17 17 18 18 18 19 19 19 20 20 21 21 22 28 24 25 25 25 25 25 26 27 29 30 31 30 30 30 29 28 28 29 29 28 28 28 28 28 26 25 24 22
16 16 17 17 17 18 18 18 19 19 19 20 20 20 21 22 26 24 24 25 25 24 26 27 28 29 30 31 31 31 30 28 28 29 28 28 28 28 28 27 27 26 25 24 22
16 16 17 17 17 18 18 18 19 19 19 20 20 20 20 25 24 23 23 24 23 24 26 28 29 29 30 30 31 30 29 29 29 29 29 29 29 28 28 27 26 25 25 25 24
16 16 17 17 17 18 18 19 19 19 20 20 20 20 20 26 24 23 23 23 24 25 27 28 28 29 30 31 30 30 31 31 30 29 30 28 27 29 28 27 27 26 26 25 25
16 16 16 17 18 18 18 19 19 20 20 20 20 20 24 24 24 23 24 24 25 25 27 28 27 28 30 30 30 31 32 29 30 29 29 28 26 29 28 27 27 27 26 25 25
16 16 17 17 18 18 18 19 19 20 20 20 20 20 26 24 24 24 25 25 25 26 26 26 26 28 30 30 31 32 31 31 30 30 30 30 29 28 28 28 28 27 27 26 25
16 16 17 17 18 18 19 19 19 19 19 19 18 22 24 26 26 25 25 26 26 26 26 26 28 30 31 31 31 32 31 31 31 30 30 30 31 31 29 28 29 28 28 27 26
16 16 17 17 18 19 19 19 18 18 18 25 26 27 26 26 25 25 25 26 26 27 28 28 29 30 31 32 32 32 31 30 31 32 30 31 31 32 31 29 29 29 28 28 27
16 16 17 17 18 19 19 20 23 22 25 24 25 26 26 25 26 26 26 27 27 28 29 30 29 31 32 32 32 31 31 31 32 31 31 31 31 33 32 31 30 29 29 28 28
16 17 17 17 18 19 18 21 21 21 25 27 26 26 25 25 28 27 26 27 29 29 30 30 32 32 32 31 30 31 31 31 31 31 31 31 31 33 32 31 30 30 29 29 28
16 18 17 18 19 19 20 21 20 21 27 28 27 26 26 26 28 28 26 28 30 30 31 31 32 31 31 30 31 30 32 31 31 30 29 32 30 32 33 32 32 30 30 30 29
17 18 18 18 19 20 21 20 20 21 28 29 28 26 26 28 29 28 27 28 30 30 31 30 31 31 30 31 32 31 32 31 31 30 30 31 31 33 34 33 33 32 31 30 30
18 19 19 19 19 20 19 20 21 26 28 29 28 28 28 28 30 29 28 28 29 30 31 31 31 31 31 32 32 32 30 31 31 31 29 31 32 33 34 33 33 34 33 31 31
18 19 19 19 21 19 19 21 26 28 31 29 29 30 29 29 30 29 29 29 29 28 29 30 30 31 30 30 32 31 31 29 29 30 30 34 32 33 34 34 34 34 33 33 32
19 19 19 18 17 18 20 25 26 31 31 31 31 31 30 30 30 30 29 29 30 31 31 30 30 31 32 30 31 30 31 31 29 31 32 33 31 33 34 34 34 34 34 33 32
18 18 18 18 17 18 22 26 30 31 30 30 31 30 30 31 31 30 30 30 31 31 30 31 30 32 32 32 31 31 30 32 31 32 32 33 33 35 35 34 34 34 33 33 32
18 20 21 18 18 20 24 24 29 29 28 29 29 31 31 31 30 31 31 32 31 32 32 31 30 32 32 31 32 31 33 31 31 28 28 32 32 32 33 33 34 34 34 33 32
18 23 20 19 19 22 26 29 29 28 27 28 29 30 30 31 31 31 31 32 32 32 32 31 31 31 32 30 31 31 30 31 32 32 31 30 32 34 33 33 33 34 33 33 32
19 25 20 20 23 25 27 29 24 27 27 28 28 29 30 31 31 31 31 32 31 32 31 32 31 30 31 33 33 32 32 32 30 29 31 31 32 35 34 34 33 33 33 32 31
20 23 20 20 25 27 28 27 26 27 27 28 28 29 30 29 28 30 31 29 29 30 30 31 30 29 30 32 33 31 32 32 33 33 31 30 32 35 34 34 33 33 33 32 30
19 25 23 21 23 24 26 26 26 25 25 26 26 27 27 27 29 28 30 30 28 29 25 28 30 29 30 31 32 30 31 31 32 31 31 31 32 33 33 33 33 33 32 31 30
19 23 20 25 25 24 25 25 25 25 25 25 25 26 27 26 27 28 29 29 28 24 27 28 27 29 30 31 31 30 30 30 30 30 30 31 31 33 33 33 33 33 32 31 30
17 18 19 21 21 21 19 23 24 25 25 24 25 26 26 25 26 26 26 28 28 29 27 28 27 28 28 29 30 29 30 30 30 30 30 30 30 32 32 32 32 32 32 31 30
13 15 15 20 22 23 24 24 23 23 22 23 23 23 23 24 23 24 24 25 27 27 27 27 27 27 26 28 28 27 28 29 29 30 30 29 31 32 32 32 32 31 30 29 28
Height
1534 1532 1531 1530 1529 1528 1526 1525 1524 1523 1522 1521 1520 1520 1520 1520 1520 1521 1522 1523 1522 1521 1522 1525 1525 1525 1524 1519 1518 1514 1519 1521 1512 1520 1508 1508 1509 1511 1514 1512 1517 1520 1519 1522 1529
1533 1531 1530 1529 1528 1526 1525 1524 1523 1522 1521 1520 1519 1519 1519 1519 1519 1518 1520 1519 1520 1521 1522 1525 1524 1523 1519 1515 1514 1512 1510 1510 1506 1503 1504 1509 1508 1509 1513 1510 1513 1519 1523 1525 1529
1532 1530 1529 1527 1526 1525 1524 1523 1522 1520 1520 1519 1518 1517 1518 1518 1519 1514 1514 1516 1518 1520 1523 1524 1523 1522 1516 1512 1510 1510 1513 1510 1505 1508 1509 1506 1508 1509 1509 1517 1513 1515 1522 1526 1530
1530 1529 1527 1526 1524 1523 1522 1521 1520 1519 1519 1518 1518 1517 1517 1517 1510 1510 1511 1514 1517 1519 1523 1523 1522 1519 1512 1506 1510 1509 1509 1511 1511 1510 1507 1507 1509 1509 1508 1511 1512 1516 1521 1525 1530
1529 1527 1525 1524 1522 1521 1519 1518 1518 1517 1517 1517 1517 1516 1517 1518 1513 1509 1510 1512 1515 1517 1521 1521 1519 1516 1510 1509 1508 1506 1508 1511 1510 1507 1507 1507 1506 1506 1507 1512 1514 1518 1521 1524 1529
1528 1526 1524 1522 1520 1518 1517 1516 1516 1515 1515 1516 1516 1516 1517 1515 1510 1511 1512 1511 1514 1517 1520 1519 1517 1516 1514 1509 1508 1508 1508 1508 1508 1506 1504 1506 1506 1507 1505 1511 1514 1518 1520 1523 1526
1527 1525 1522 1520 1518 1516 1515 1514 1514 1514 1514 1514 1515 1515 1516 1512 1509 1511 1512 1512 1515 1517 1518 1518 1518 1518 1510 1507 1507 1506 1503 1500 1503 1504 1502 1511 1510 1507 1504 1509 1513 1516 1519 1521 1524
1525 1523 1520 1518 1516 1514 1513 1512 1512 1512 1512 1513 1513 1514 1511 1507 1509 1510 1512 1513 1515 1517 1518 1518 1519 1517 1512 1507 1506 1502 1496 1505 1500 1502 1502 1509 1508 1507 1504 1506 1510 1513 1517 1520 1523
1524 1521 1519 1516 1514 1512 1511 1510 1510 1510 1510 1512 1514 1514 1507 1504 1506 1509 1511 1512 1514 1516 1518 1518 1519 1515 1509 1507 1501 1494 1497 1496 1499 1501 1500 1498 1499 1499 1502 1505 1505 1510 1513 1517 1521
1522 1520 1517 1514 1512 1510 1510 1509 1509 1509 1510 1511 1513 1517 1505 1502 1504 1507 1510 1511 1513 1515 1517 1518 1515 1509 1505 1500 1505 1492 1495 1496 1498 1497 1499 1496 1493 1490 1498 1502 1502 1506 1509 1514 1518
1520 1518 1515 1512 1510 1509 1509 1509 1511 1511 1508 1499 1498 1498 1500 1501 1504 1506 1508 1510 1512 1513 1510 1511 1509 1505 1497 1492 1488 1490 1497 1501 1494 1492 1500 1494 1491 1485 1489 1497 1499 1501 1504 1508 1513
1518 1515 1513 1510 1508 1507 1507 1509 1506 1508 1500 1497 1499 1499 1499 1501 1502 1503 1507 1508 1508 1506 1506 1502 1505 1494 1491 1489 1489 1494 1499 1498 1489 1494 1496 1492 1490 1478 1481 1487 1492 1496 1497 1502 1507
1515 1512 1510 1508 1507 1505 1506 1508 1507 1506 1499 1490 1493 1495 1498 1500 1496 1498 1503 1502 1501 1500 1496 1497 1487 1488 1490 1490 1497 1496 1496 1492 1494 1491 1493 1489 1486 1473 1475 1482 1486 1490 1493 1495 1500
1513 1509 1507 1506 1508 1507 1507 1507 1506 1506 1492 1482 1488 1489 1493 1495 1491 1492 1498 1500 1496 1494 1491 1490 1488 1489 1490 1492 1493 1497 1484 1488 1492 1501 1505 1483 1503 1477 1469 1474 1479 1484 1487 1490 1494
1509 1506 1504 1504 1504 1507 1507 1506 1506 1507 1490 1476 1482 1486 1488 1489 1480 1489 1494 1496 1490 1489 1489 1488 1486 1486 1493 1489 1486 1491 1482 1487 1489 1495 1495 1488 1493 1471 1462 1469 1468 1471 1478 1482 1487
1506 1502 1501 1501 1502 1504 1505 1506 1507 1501 1485 1474 1476 1480 1482 1484 1480 1483 1490 1494 1492 1487 1485 1484 1481 1483 1483 1483 1484 1485 1490 1488 1488 1489 1503 1480 1480 1471 1459 1463 1463 1464 1466 1474 1480
1503 1500 1499 1499 1504 1502 1505 1507 1498 1486 1460 1470 1469 1471 1475 1477 1478 1483 1485 1488 1489 1497 1491 1482 1481 1480 1484 1485 1479 1483 1488 1502 1504 1497 1494 1457 1469 1462 1453 1456 1460 1462 1464 1467 1472
1501 1498 1498 1498 1500 1502 1505 1501 1498 1461 1458 1459 1461 1463 1470 1468 1470 1474 1480 1483 1480 1475 1471 1479 1483 1469 1474 1480 1477 1482 1481 1487 1503 1487 1469 1452 1479 1463 1451 1455 1457 1459 1460 1464 1467
1499 1499 1500 1500 1499 1501 1503 1490 1468 1459 1460 1463 1461 1464 1464 1460 1463 1468 1470 1470 1467 1472 1479 1467 1473 1460 1464 1470 1476 1476 1484 1470 1478 1467 1474 1460 1454 1445 1444 1451 1451 1451 1456 1458 1464
1500 1501 1500 1499 1500 1503 1497 1485 1468 1471 1473 1469 1467 1455 1460 1458 1464 1462 1462 1457 1459 1461 1466 1462 1478 1461 1464 1469 1468 1471 1464 1480 1475 1501 1500 1468 1464 1460 1448 1453 1452 1451 1453 1457 1463
1500 1497 1498 1499 1501 1500 1486 1468 1467 1472 1475 1470 1463 1458 1456 1450 1451 1458 1457 1451 1455 1455 1462 1464 1466 1463 1459 1469 1467 1469 1474 1470 1465 1463 1478 1481 1461 1439 1449 1451 1451 1450 1452 1455 1460
1502 1491 1497 1499 1498 1485 1475 1468 1478 1474 1474 1473 1470 1464 1458 1452 1453 1452 1451 1448 1451 1455 1460 1459 1460 1470 1461 1450 1452 1453 1454 1456 1474 1483 1468 1468 1462 1433 1441 1447 1450 1451 1452 1454 1461
1502 1494 1495 1497 1486 1473 1471 1475 1476 1473 1471 1469 1468 1464 1460 1461 1464 1455 1448 1454 1458 1461 1462 1458 1465 1475 1466 1451 1443 1451 1453 1451 1446 1446 1461 1469 1456 1432 1438 1444 1446 1447 1449 1453 1458
1504 1487 1489 1492 1487 1484 1475 1473 1471 1474 1476 1474 1472 1468 1468 1465 1460 1459 1452 1451 1462 1464 1469 1465 1457 1460 1464 1451 1442 1456 1451 1451 1450 1457 1455 1453 1448 1439 1439 1440 1444 1444 1448 1452 1455
1504 1493 1497 1479 1480 1483 1480 1477 1475 1473 1472 1475 1473 1470 1467 1466 1461 1458 1457 1454 1459 1466 1469 1466 1469 1461 1452 1447 1445 1449 1452 1452 1455 1452 1461 1452 1446 1438 1436 1437 1441 1442 1447 1451 1453
1510 1507 1501 1494 1489 1489 1484 1479 1475 1473 1471 1473 1473 1468 1469 1471 1466 1462 1459 1455 1454 1456 1464 1462 1466 1461 1459 1449 1449 1452 1450 1449 1449 1451 1452 1452 1450 1442 1440 1441 1443 1445 1446 1447 1450
1514 1512 1509 1493 1487 1484 1476 1474 1477 1479 1479 1478 1477 1477 1474 1473 1475 1470 1470 1465 1461 1458 1458 1460 1460 1462 1464 1455 1451 1458 1453 1450 1448 1443 1446 1453 1444 1440 1441 1441 1441 1444 1447 1451 1453
Wind_Speed
6 6 6 6 6 6 6 6 7 7 7 7 7 8 9 10 11 11 10 9 11 8 10 6 7 6 6 8 3 6 2 3 3 11 4 5 0 3 2 8 3 5 7 10 15
7 7 8 8 8 8 8 8 7 7 7 8 7 6 7 9 10 16 13 13 11 9 10 10 8 6 12 3 0 5 4 9 4 1 4 4 5 4 4 6 4 8 6 12 17
8 8 9 9 9 9 9 9 8 8 7 7 6 5 5 5 7 15 19 14 11 10 11 10 7 7 9 4 2 3 6 5 6 9 1 3 5 3 2 11 3 9 10 13 17
9 9 9 10 10 10 10 9 9 8 7 6 5 3 3 5 2 3 11 18 14 12 11 13 11 11 9 2 3 3 4 4 4 3 2 5 3 3 3 3 4 7 12 13 17
9 10 10 10 10 10 10 10 9 8 7 6 4 3 3 7 9 4 7 16 17 16 14 14 12 9 11 1 6 1 4 1 1 4 1 2 7 5 2 2 5 8 11 13 19
11 11 11 11 10 10 10 10 9 8 8 6 4 3 3 14 2 3 6 10 18 17 16 14 10 7 9 7 7 4 3 1 1 2 3 6 2 6 7 6 9 9 10 12 17
12 13 13 12 12 10 10 10 9 8 8 6 4 4 9 8 3 5 9 12 17 18 16 14 12 10 4 11 1 8 9 7 4 1 3 4 11 5 7 10 11 11 9 12 12
14 14 14 14 13 11 10 9 8 7 6 6 4 3 8 7 6 8 9 11 15 17 14 11 10 13 11 8 11 12 9 3 5 2 2 6 13 4 7 11 11 12 12 13 13
14 14 14 14 13 12 10 8 6 5 4 4 1 4 10 5 9 12 12 12 13 16 14 9 11 15 15 11 13 10 9 4 8 2 4 5 6 9 6 11 12 14 14 15 14
15 14 15 15 13 12 8 5 3 3 4 4 6 7 12 11 12 15 13 10 14 14 13 14 12 14 13 13 12 4 6 7 4 7 6 10 8 2 12 12 12 15 16 16 17
16 15 14 14 13 11 4 1 2 3 12 11 5 4 6 7 13 14 14 14 15 16 15 19 13 16 17 16 16 7 10 9 7 3 6 8 11 7 10 16 16 16 17 19 18
17 16 14 13 11 7 6 6 6 4 10 16 12 13 4 11 14 16 16 15 15 16 19 14 18 17 15 15 13 9 13 12 8 1 9 12 15 13 11 13 18 19 19 20 21
19 17 13 11 9 6 8 7 4 6 8 14 16 17 13 12 17 20 21 19 14 17 17 18 8 17 18 11 12 14 15 13 10 9 13 17 15 15 11 12 13 18 20 20 23
21 17 11 8 4 2 6 6 5 5 6 14 12 12 18 14 15 20 22 17 11 16 18 14 18 8 15 14 14 16 12 13 12 9 10 2 10 7 8 14 14 15 20 21 22
22 16 11 8 5 5 4 3 4 3 6 13 11 10 15 15 11 19 21 20 15 13 11 14 13 15 14 15 15 19 15 12 12 13 14 16 9 10 7 10 13 21 21 22 23
22 16 7 7 10 9 4 3 1 7 4 8 9 12 16 22 11 17 19 23 15 14 13 17 6 9 14 14 14 8 8 14 13 13 13 18 14 11 7 3 3 5 17 19 19
20 10 4 8 1 7 6 5 7 9 5 10 11 15 17 17 17 12 19 20 15 13 14 17 19 15 14 11 13 15 14 10 11 10 12 15 7 5 10 3 8 9 13 11 16
15 4 2 9 5 7 7 9 9 5 1 3 4 13 15 18 18 15 18 17 20 17 15 11 15 22 17 17 10 12 16 12 10 11 9 9 5 4 5 4 10 12 11 10 8
7 2 2 3 7 8 12 10 5 5 6 5 9 11 14 15 13 15 18 18 19 20 16 7 9 7 12 16 15 15 14 16 18 18 13 11 11 11 8 3 8 10 15 10 6
1 5 3 4 7 7 9 16 10 4 7 7 13 13 14 16 16 15 16 14 17 19 19 10 11 9 9 12 13 14 15 11 12 15 15 11 7 10 8 1 5 3 7 8 6
1 7 3 5 6 12 10 10 3 5 7 9 12 12 10 14 18 18 13 13 9 16 16 17 12 8 11 14 15 10 13 14 17 12 12 12 9 11 4 3 6 6 5 6 4
4 4 3 7 11 13 12 11 3 12 7 11 8 15 15 11 15 13 18 16 16 14 13 18 11 14 18 13 17 17 15 13 11 17 11 13 12 16 4 1 9 9 9 4 6
8 8 2 9 8 9 13 7 7 11 10 6 9 10 12 13 12 14 16 12 5 9 8 12 11 15 16 14 17 12 16 17 16 16 17 12 10 4 8 8 9 9 4 6 8
7 3 7 10 16 11 13 9 13 8 12 8 11 12 9 15 15 14 14 8 4 13 5 6 13 16 13 16 8 8 11 18 18 14 14 15 17 14 12 9 10 9 4 7 8
3 3 5 4 2 7 9 11 10 13 10 7 10 12 14 12 15 16 17 14 13 8 9 11 19 19 21 21 20 18 13 15 14 15 15 18 20 15 13 7 10 5 3 3 5
8 6 9 16 11 10 8 11 13 14 8 13 10 14 6 11 14 16 9 17 16 13 15 17 17 18 21 20 19 22 20 21 21 20 21 21 20 17 23 20 14 10 14 7 4
8 6 7 7 9 7 5 8 6 6 11 11 14 10 11 9 13 12 13 19 11 11 14 13 15 16 20 21 22 23 23 23 23 22 19 21 20 17 16 15 16 7 10 6 6
Wind_Direction
338 331 325 322 319 316 314 313 315 316 314 308 290 269 260 255 254 250 245 231 226 225 202 194 220 236 243 263 305 291 277 80 353 62 213 131 222 124 65 135 50 45 34 121 151
327 320 315 310 308 306 305 306 309 311 314 315 303 279 263 259 260 251 237 226 228 215 191 200 216 223 246 242 305 327 25 16 16 204 69 93 331 118 219 164 158 122 96 135 154
324 318 313 309 304 301 300 300 302 305 308 315 310 288 262 260 274 246 221 223 202 200 193 214 247 247 260 238 76 48 354 11 59 2 74 47 232 158 294 358 199 131 136 151 158
328 321 316 309 303 297 294 294 295 298 301 311 306 282 240 214 254 213 216 203 197 190 206 218 235 234 253 279 65 301 35 20 356 357 208 212 320 297 321 77 5 113 148 159 155
332 328 323 315 307 299 292 288 288 289 292 298 295 270 211 233 254 268 205 196 190 187 209 209 225 238 271 293 277 301 359 9 27 349 349 254 234 264 272 102 143 134 153 166 157
335 329 325 320 313 303 292 285 282 280 280 278 277 250 233 248 206 216 202 198 193 194 207 215 232 261 294 272 284 6 13 94 277 7 239 266 236 216 127 149 149 156 162 170 165
336 330 327 324 319 310 297 286 279 276 274 264 262 249 257 239 229 199 191 195 195 200 211 223 243 255 279 252 120 274 266 189 157 359 303 327 314 225 134 161 166 174 173 169 177
334 329 325 323 321 314 304 292 281 275 266 250 244 230 256 212 222 189 181 189 194 206 221 230 232 263 273 300 256 243 252 176 113 239 134 261 146 117 150 175 176 183 174 178 180
330 326 322 320 319 316 306 298 288 274 249 213 206 216 247 261 200 191 182 188 194 199 215 236 237 246 250 245 251 202 258 102 139 147 303 285 342 132 181 187 188 192 179 183 184
328 325 320 318 318 314 303 296 295 263 196 193 231 232 231 229 187 187 187 193 185 191 203 219 227 238 229 248 242 290 197 182 278 137 259 287 276 272 176 204 214 189 191 192 189
326 323 319 315 314 313 283 191 257 212 214 214 219 239 147 157 176 185 187 182 187 203 214 203 219 229 235 223 274 324 294 285 259 101 291 288 295 278 201 195 206 212 201 194 197
326 321 318 313 310 302 213 212 340 331 288 221 225 226 180 176 181 185 177 186 202 210 217 214 230 242 242 259 256 263 251 255 251 186 269 299 297 275 177 201 207 208 207 206 198
328 320 316 308 308 269 205 217 275 319 255 183 216 215 198 203 211 186 192 210 201 216 215 235 219 211 249 238 249 246 263 274 293 329 284 266 268 243 174 186 207 209 216 212 203
329 320 313 304 335 208 241 249 241 307 265 151 191 207 194 203 229 194 202 206 213 233 229 232 253 230 255 229 250 249 244 250 270 269 274 101 300 287 200 186 191 214 210 214 211
330 320 302 247 207 205 169 191 267 244 261 153 138 150 187 201 130 196 197 210 241 216 229 232 225 241 232 246 240 256 271 282 271 259 268 263 254 264 168 232 216 191 208 210 210
330 321 295 241 232 190 216 243 225 232 230 152 149 185 189 210 192 151 190 214 229 256 232 258 237 251 250 242 245 260 253 257 257 249 254 251 243 259 215 107 224 258 179 194 209
331 320 263 179 114 199 198 206 231 250 129 157 184 173 195 193 215 180 191 199 216 221 232 224 239 219 237 250 229 235 240 242 224 224 249 252 247 306 327 249 232 269 218 211 192
334 328 235 201 222 182 186 228 255 358 180 66 195 181 200 181 210 193 192 210 219 229 273 208 214 213 208 229 233 222 232 250 254 250 270 101 228 245 206 259 277 264 241 223 224
340 342 280 254 196 189 216 229 265 15 14 251 177 227 204 188 215 197 215 214 216 222 245 234 235 116 202 205 229 234 216 249 275 278 276 276 283 272 223 287 271 239 223 205 207
295 236 217 193 182 193 238 256 297 306 298 249 257 204 226 202 206 226 209 222 229 207 234 265 269 180 188 239 220 245 266 236 229 262 271 282 283 276 169 275 337 270 198 194 191
75 245 184 177 188 224 240 246 315 235 266 261 264 274 251 283 201 236 223 225 235 209 220 236 257 262 175 202 237 188 234 248 272 270 260 252 245 81 72 219 290 280 219 232 189
287 255 174 175 225 232 251 296 25 280 212 261 263 285 287 283 264 227 250 250 179 250 230 222 249 239 248 224 223 247 268 217 234 237 260 286 290 306 27 339 343 309 281 214 225
304 290 225 201 250 239 234 264 254 275 250 263 258 256 274 267 271 269 253 90 147 226 239 236 226 250 255 245 226 234 244 258 268 247 254 276 263 199 163 199 255 258 291 194 237
299 261 176 217 259 281 296 277 260 185 278 279 280 298 271 258 260 264 267 150 185 237 344 284 255 251 262 242 352 305 229 254 257 259 261 249 257 275 274 284 308 303 31 306 208
294 42 337 272 183 300 290 286 292 263 201 253 266 254 267 270 258 243 243 264 169 203 255 238 254 263 271 274 282 284 256 267 277 282 276 285 291 297 305 292 257 347 299 279 239
326 337 335 283 275 270 247 253 255 262 257 268 227 277 253 273 275 296 330 247 256 198 216 248 251 268 273 273 273 278 269 274 262 258 263 269 271 279 291 301 306 311 305 360 293
343 304 290 284 274 263 283 300 301 333 292 272 297 307 282 312 331 308 298 297 299 282 277 231 256 257 257 260 255 250 253 259 269 269 263 264 263 264 271 261 256 302 345 318 303